Time,TemperatureF,DewpointF,PressureIn,WindDirection,WindDirectionDegrees,WindSpeedMPH,WindSpeedGustMPH,Humidity,HourlyPrecipIn,Conditions,Clouds,dailyrainin,SoftwareType,DateUTC
2013-05-15 00:14:00,74.5,62.0,29.74,South,178,5.0,11.0,65,0.00,,,0.00,weatherlink.com 1.10,2013-05-15 05:14:00,
2013-05-15 00:29:00,74.0,62.0,29.73,SSW,200,15.0,15.0,67,0.00,,,0.00,weatherlink.com 1.10,2013-05-15 05:29:00,
2013-05-15 00:44:00,73.4,62.0,29.73,SSW,195,3.0,9.0,68,0.00,,,0.00,weatherlink.com 1.10,2013-05-15 05:44:00,
2013-05-15 00:59:00,73.3,62.0,29.72,South,182,3.0,8.0,68,0.00,,,0.00,weatherlink.com 1.10,2013-05-15 05:59:00,
2013-05-15 01:14:00,72.7,62.0,29.72,SSW,193,5.0,8.0,69,0.00,,,0.00,weatherlink.com 1.10,2013-05-15 06:14:00,
2013-05-15 01:29:00,72.3,62.0,29.71,SSW,193,2.0,13.0,69,0.00,,,0.00,weatherlink.com 1.10,2013-05-15 06:29:00,
2013-05-15 01:44:00,72.4,61.0,29.71,South,187,3.0,12.0,67,0.00,,,0.00,weatherlink.com 1.10,2013-05-15 06:44:00,
2013-05-15 01:59:00,72.6,60.0,29.71,SW,222,4.0,12.0,65,0.00,,,0.00,weatherlink.com 1.10,2013-05-15 06:59:00,
2013-05-15 02:14:00,72.1,59.0,29.71,WSW,255,5.0,11.0,64,0.00,,,0.00,weatherlink.com 1.10,2013-05-15 07:14:00,
2013-05-15 02:29:00,71.6,59.0,29.70,SW,231,5.0,10.0,64,0.00,,,0.00,weatherlink.com 1.10,2013-05-15 07:29:00,
2013-05-15 02:45:00,71.4,58.0,29.70,SW,225,4.0,10.0,63,0.00,,,0.00,weatherlink.com 1.10,2013-05-15 07:45:00,
2013-05-15 03:00:00,71.5,57.0,29.70,WSW,247,7.0,10.0,61,0.00,,,0.00,weatherlink.com 1.10,2013-05-15 08:00:00,
2013-05-15 03:15:00,71.2,57.0,29.70,SW,234,2.0,12.0,62,0.00,,,0.00,weatherlink.com 1.10,2013-05-15 08:15:00,
2013-05-15 03:30:00,71.1,57.0,29.70,WSW,243,5.0,13.0,61,0.00,,,0.00,weatherlink.com 1.10,2013-05-15 08:30:00,
2013-05-15 03:45:00,71.7,57.0,29.70,WSW,251,3.0,13.0,60,0.00,,,0.00,weatherlink.com 1.10,2013-05-15 08:45:00,
2013-05-15 04:00:00,72.4,57.0,29.70,SSW,213,4.0,20.0,59,0.00,,,0.00,weatherlink.com 1.10,2013-05-15 09:00:00,
2013-05-15 04:15:00,72.6,57.0,29.70,WSW,245,7.0,17.0,59,0.00,,,0.00,weatherlink.com 1.10,2013-05-15 09:15:00,
2013-05-15 04:30:00,73.0,57.0,29.71,WSW,240,6.0,16.0,58,0.00,,,0.00,weatherlink.com 1.10,2013-05-15 09:30:00,
2013-05-15 04:45:00,73.1,57.0,29.71,SW,220,2.0,14.0,58,0.00,,,0.00,weatherlink.com 1.10,2013-05-15 09:45:00,
2013-05-15 05:00:00,73.1,57.0,29.72,West,266,5.0,15.0,58,0.00,,,0.00,weatherlink.com 1.10,2013-05-15 10:00:00,
2013-05-15 05:15:00,73.0,58.0,29.73,West,269,6.0,17.0,59,0.00,,,0.00,weatherlink.com 1.10,2013-05-15 10:15:00,
2013-05-15 05:30:00,72.9,58.0,29.73,SSW,195,4.0,13.0,60,0.00,,,0.00,weatherlink.com 1.10,2013-05-15 10:30:00,
2013-05-15 05:45:00,73.0,58.0,29.74,WSW,258,10.0,15.0,59,0.00,,,0.00,weatherlink.com 1.10,2013-05-15 10:45:00,
2013-05-15 06:00:00,72.6,58.0,29.75,West,268,3.0,11.0,60,0.00,,,0.00,weatherlink.com 1.10,2013-05-15 11:00:00,
2013-05-15 06:15:00,72.4,58.0,29.76,West,265,8.0,12.0,61,0.00,,,0.00,weatherlink.com 1.10,2013-05-15 11:15:00,
2013-05-15 06:30:00,72.3,58.0,29.76,WNW,303,4.0,11.0,62,0.00,,,0.00,weatherlink.com 1.10,2013-05-15 11:30:00,
2013-05-15 06:45:00,72.2,59.0,29.76,NW,310,4.0,7.0,63,0.00,,,0.00,weatherlink.com 1.10,2013-05-15 11:45:00,
2013-05-15 07:00:00,69.9,60.0,29.78,SW,217,2.0,9.0,71,0.00,,,0.00,weatherlink.com 1.10,2013-05-15 12:00:00,
2013-05-15 07:15:00,70.3,60.0,29.77,West,268,1.0,7.0,69,0.00,,,0.00,weatherlink.com 1.10,2013-05-15 12:15:00,
2013-05-15 07:30:00,70.8,60.0,29.78,WNW,301,2.0,3.0,68,0.00,,,0.00,weatherlink.com 1.10,2013-05-15 12:30:00,
2013-05-15 08:00:00,71.5,60.0,29.80,West,276,1.0,9.0,67,0.00,,,0.00,weatherlink.com 1.10,2013-05-15 13:00:00,
2013-05-15 08:15:00,71.6,60.0,29.79,WSW,239,2.0,9.0,66,0.00,,,0.00,weatherlink.com 1.10,2013-05-15 13:15:00,
2013-05-15 08:30:00,71.9,60.0,29.80,West,276,6.0,8.0,66,0.00,,,0.00,weatherlink.com 1.10,2013-05-15 13:30:00,
2013-05-15 08:45:00,72.3,59.0,29.82,West,264,5.0,10.0,64,0.00,,,0.00,weatherlink.com 1.10,2013-05-15 13:45:00,
2013-05-15 09:00:00,73.3,59.0,29.82,West,272,6.0,10.0,61,0.00,,,0.00,weatherlink.com 1.10,2013-05-15 14:00:00,
2013-05-15 10:00:00,76.9,59.0,29.82,WNW,291,3.0,12.0,54,0.00,,,0.00,weatherlink.com 1.10,2013-05-15 15:00:00,
2013-05-15 10:15:00,77.5,56.0,29.83,WNW,293,5.0,13.0,48,0.00,,,0.00,weatherlink.com 1.10,2013-05-15 15:15:00,
2013-05-15 10:45:00,79.2,53.0,29.84,NW,320,9.0,14.0,41,0.00,,,0.00,weatherlink.com 1.10,2013-05-15 15:45:00,
2013-05-15 11:15:00,80.9,54.0,29.83,NNW,329,7.0,11.0,39,0.00,,,0.00,weatherlink.com 1.10,2013-05-15 16:15:00,
2013-05-15 11:30:00,80.6,53.0,29.83,NW,320,4.0,11.0,39,0.00,,,0.00,weatherlink.com 1.10,2013-05-15 16:30:00,
2013-05-15 11:45:00,81.4,53.0,29.83,NNW,333,5.0,9.0,37,0.00,,,0.00,weatherlink.com 1.10,2013-05-15 16:45:00,
2013-05-15 12:00:00,82.2,54.0,29.84,North,353,8.0,13.0,38,0.00,,,0.00,weatherlink.com 1.10,2013-05-15 17:00:00,
2013-05-15 12:15:00,81.7,54.0,29.84,North,355,6.0,13.0,39,0.00,,,0.00,weatherlink.com 1.10,2013-05-15 17:15:00,
2013-05-15 12:30:00,82.0,55.0,29.84,North,355,7.0,13.0,39,0.00,,,0.00,weatherlink.com 1.10,2013-05-15 17:30:00,
2013-05-15 13:00:00,82.1,53.0,29.84,NE,35,7.0,14.0,37,0.00,,,0.00,weatherlink.com 1.10,2013-05-15 18:00:00,
2013-05-15 13:15:00,82.4,54.0,29.84,NNE,33,5.0,12.0,38,0.00,,,0.00,weatherlink.com 1.10,2013-05-15 18:15:00,
2013-05-15 13:30:00,82.0,54.0,29.84,North,357,6.0,14.0,38,0.00,,,0.00,weatherlink.com 1.10,2013-05-15 18:30:00,
2013-05-15 13:45:00,82.9,53.0,29.83,NNW,338,6.0,10.0,36,0.00,,,0.00,weatherlink.com 1.10,2013-05-15 18:45:00,
2013-05-15 14:00:00,81.8,53.0,29.84,NNW,330,5.0,11.0,37,0.00,,,0.00,weatherlink.com 1.10,2013-05-15 19:00:00,
2013-05-15 14:15:00,82.9,55.0,29.82,NNE,26,3.0,10.0,38,0.00,,,0.00,weatherlink.com 1.10,2013-05-15 19:15:00,
2013-05-15 14:46:00,83.4,55.0,29.83,North,355,6.0,12.0,38,0.00,,,0.00,weatherlink.com 1.10,2013-05-15 19:46:00,
2013-05-15 15:16:00,82.4,54.0,29.83,North,8,10.0,12.0,38,0.00,,,0.00,weatherlink.com 1.10,2013-05-15 20:16:00,
2013-05-15 15:31:00,82.0,55.0,29.82,NE,37,8.0,13.0,39,0.00,,,0.00,weatherlink.com 1.10,2013-05-15 20:31:00,
2013-05-15 15:46:00,83.0,54.0,29.81,North,355,10.0,11.0,37,0.00,,,0.00,weatherlink.com 1.10,2013-05-15 20:46:00,
2013-05-15 16:01:00,81.2,55.0,29.82,North,2,10.0,11.0,40,0.00,,,0.00,weatherlink.com 1.10,2013-05-15 21:01:00,
2013-05-15 16:31:00,81.1,52.0,29.82,North,355,6.0,12.0,37,0.00,,,0.00,weatherlink.com 1.10,2013-05-15 21:31:00,
2013-05-15 16:46:00,81.1,52.0,29.82,North,2,9.0,13.0,36,0.00,,,0.00,weatherlink.com 1.10,2013-05-15 21:46:00,
2013-05-15 17:01:00,79.4,53.0,29.82,North,357,7.0,8.0,40,0.00,,,0.00,weatherlink.com 1.10,2013-05-15 22:01:00,
2013-05-15 17:16:00,79.4,52.0,29.82,NNE,33,9.0,13.0,38,0.00,,,0.00,weatherlink.com 1.10,2013-05-15 22:16:00,
2013-05-15 18:01:00,78.5,53.0,29.82,North,358,8.0,9.0,41,0.00,,,0.00,weatherlink.com 1.10,2013-05-15 23:01:00,
2013-05-15 18:31:00,76.7,53.0,29.82,NNE,27,2.0,5.0,44,0.00,,,0.00,weatherlink.com 1.10,2013-05-15 23:31:00,
2013-05-15 18:46:00,75.7,53.0,29.82,NNE,28,3.0,3.0,46,0.00,,,0.00,weatherlink.com 1.10,2013-05-15 23:46:00,
2013-05-15 19:01:00,76.0,53.0,29.82,NNE,12,2.0,5.0,45,0.00,,,0.00,weatherlink.com 1.10,2013-05-16 00:01:00,
2013-05-15 19:16:00,75.0,53.0,29.82,NNE,26,2.0,4.0,47,0.00,,,0.00,weatherlink.com 1.10,2013-05-16 00:16:00,
2013-05-15 19:31:00,73.1,54.0,29.83,NNE,26,1.0,3.0,51,0.00,,,0.00,weatherlink.com 1.10,2013-05-16 00:31:00,
2013-05-15 20:01:00,71.7,53.0,29.84,North,351,3.0,3.0,52,0.00,,,0.00,weatherlink.com 1.10,2013-05-16 01:01:00,
2013-05-15 20:16:00,70.4,55.0,29.84,North,1,1.0,2.0,59,0.00,,,0.00,weatherlink.com 1.10,2013-05-16 01:16:00,
2013-05-15 20:46:00,67.3,55.0,29.82,SE,133,0.0,2.0,66,0.00,,,0.00,weatherlink.com 1.10,2013-05-16 01:46:00,
2013-05-15 21:01:00,65.7,56.0,29.83,SE,133,0.0,1.0,72,0.00,,,0.00,weatherlink.com 1.10,2013-05-16 02:01:00,
2013-05-15 21:31:00,66.6,55.0,29.83,SE,133,0.0,3.0,66,0.00,,,0.00,weatherlink.com 1.10,2013-05-16 02:31:00,
2013-05-15 21:46:00,66.4,54.0,29.85,NNE,29,1.0,15.0,64,0.00,,,0.00,weatherlink.com 1.10,2013-05-16 02:46:00,
2013-05-15 22:01:00,67.2,54.0,29.85,NNW,347,3.0,10.0,63,0.00,,,0.00,weatherlink.com 1.10,2013-05-16 03:01:00,
2013-05-15 22:31:00,64.9,54.0,29.85,NNW,347,2.0,3.0,67,0.00,,,0.00,weatherlink.com 1.10,2013-05-16 03:31:00,
2013-05-15 22:46:00,64.0,54.0,29.84,NNW,347,0.0,2.0,69,0.00,,,0.00,weatherlink.com 1.10,2013-05-16 03:46:00,
2013-05-15 23:01:00,62.7,54.0,29.84,NNW,347,0.0,1.0,73,0.00,,,0.00,weatherlink.com 1.10,2013-05-16 04:01:00,
2013-05-15 23:16:00,62.0,54.0,29.84,NNE,27,9.0,9.0,74,0.00,,,0.00,weatherlink.com 1.10,2013-05-16 04:16:00,
2013-05-15 23:31:00,61.0,54.0,29.84,NNE,30,0.0,3.0,77,0.00,,,0.00,weatherlink.com 1.10,2013-05-16 04:31:00,
2013-05-15 23:46:00,59.4,53.0,29.84,NNE,30,0.0,1.0,80,0.00,,,0.00,weatherlink.com 1.10,2013-05-16 04:46:00,